#timestamp,LO_Frequency,Hit 
1505145615.0,286047000.5,N
1505145615.9,286047000.5,N
1505145635.8,286047002.3,N
1505145655.6,286046999.7,N
1505145675.4,286046999.6,N
1505145695.3,286046997.9,N
1505145715.1,286046995.7,N
1505145716.0,286046995.7,N
1505145735.8,286046993.4,N
1505145755.7,286046993.8,N
1505145775.5,286046996.2,N
1505145795.3,286046996.1,N
1505145815.1,286046993.3,N
1505145835.9,286046996.2,N
1505145855.7,286046997.0,N
1505145875.5,286046998.3,N
1505145895.4,286046999.4,N
1505145915.2,286046999.1,N
1505145935.0,286046999.6,N
1505145935.9,286046999.6,N
1505145955.8,286047000.7,N
1505145975.6,286046998.6,N
1505145995.4,286047000.6,N
1505146015.3,286047004.4,N
1505146035.1,286047000.9,N
1505146036.0,286047000.9,N
1505146055.8,286046998.9,N
1505146075.7,286046998.5,N
1505146095.5,286047000.9,N
1505146115.3,286046998.9,N
1505146135.1,286046998.2,N
1505146155.9,286047001.6,N
1505146175.7,286047002.8,N
1505146195.5,286047000.5,N
1505146215.4,286047001.4,N
1505146235.2,286047001.3,N
1505146255.0,286047002.0,N
1505146255.9,286047002.0,N
1505146275.8,286047002.4,N
1505146295.6,286047000.5,N
1505146315.4,286046998.5,N
1505146335.3,286047000.5,N
1505146355.1,286047001.5,N
1505146356.0,286047001.5,N
1505146375.8,286047001.4,N
1505146395.7,286047005.5,P
1505146415.5,286047001.3,N
1505146435.3,286047003.3,N
1505146455.2,286047002.1,N
1505146475.9,286047004.0,N
1505146495.7,286047004.0,N
1505146515.6,286047002.9,N
1505146535.4,286047006.0,P
1505146555.2,286046999.0,N
1505146575.1,286047001.1,N
1505146576.0,286047001.1,N
1505146595.8,286046999.8,N
1505146615.6,286047000.5,N
1505146635.5,286046998.8,N
1505146655.3,286047001.0,N
1505146675.1,286047000.0,N
1505146695.8,286046999.4,N
1505146715.7,286046998.9,N
1505146735.5,286047002.3,N
1505146755.3,286047001.0,N
1505146775.2,286046998.7,N
1505146795.9,286046998.6,N
1505146815.7,286046998.2,N
1505146835.6,286046996.5,N
1505146855.4,286046994.9,N
1505146875.2,286046997.3,N
1505146895.1,286046993.8,N
1505146896.0,286046993.8,N
1505146915.8,286046995.7,N
1505146935.6,286046993.4,N
1505146955.4,286046995.9,N
1505146975.3,286046995.2,N
1505146995.1,286046994.9,N
1505147015.8,286046997.4,N
1505147035.7,286046999.9,N
1505147055.5,286046998.2,N
1505147075.3,286047002.5,N
1505147095.2,286047004.3,N
1505147115.9,286047002.1,N
1505147135.7,286046999.9,N
1505147155.6,286046998.6,N
1505147175.4,286046998.1,N
1505147195.2,286046997.2,N
1505147215.1,286046997.3,N
1505147216.0,286046997.3,N
1505147235.8,286046995.7,N
1505147255.6,286046995.1,N
1505147275.5,286046997.5,N
1505147295.3,286046997.7,N
1505147315.1,286046995.5,N
1505147335.8,286046997.2,N
1505147355.7,286046996.5,N
1505147375.5,286046999.0,N
1505147395.3,286046997.9,N
1505147415.2,286046998.6,N
1505147435.9,286047000.1,N
1505147455.7,286047002.3,N
1505147475.6,286047002.5,N
1505147495.4,286047004.3,N
1505147515.2,286047003.5,N
1505147535.1,286047003.4,N
1505147536.0,286047003.4,N
1505147555.8,286047005.9,N
1505147575.6,286047005.9,N
1505147595.5,286047001.3,N
1505147615.3,286047004.0,N
1505147635.1,286047003.5,N
1505147655.8,286047003.3,N
1505147675.7,286047000.4,N
1505147695.5,286046998.9,N
1505147715.3,286047001.2,N
1505147735.2,286047001.0,N
1505147755.0,286046998.7,N
1505147755.9,286046998.7,N
1505147775.7,286046998.9,N
1505147795.6,286046998.2,N
1505147815.4,286046999.9,N
1505147835.2,286047003.2,N
1505147855.1,286047000.0,N
1505147856.0,286047000.0,N
1505147875.8,286047004.4,N
1505147895.6,286047005.5,N
1505147915.5,286047005.4,N
1505147935.3,286047004.1,N
1505147955.1,286047001.6,N
1505147975.9,286047002.1,N
1505147995.7,286047003.1,N
1505148015.5,286047005.8,N
1505148035.4,286047007.3,P
1505148055.2,286047004.0,N
1505148075.0,286047001.4,N
1505148075.9,286047001.4,N
1505148095.8,286047001.5,N
1505148115.6,286047003.9,N
1505148135.4,286047002.0,N
1505148155.3,286046999.8,N
1505148175.1,286046999.7,N
1505148176.0,286046999.7,N
1505148195.8,286047001.9,N
1505148215.6,286047001.0,N
1505148235.5,286046998.9,N
1505148255.3,286047002.6,N
1505148275.1,286047002.0,N
1505148295.9,286047002.5,N
1505148315.7,286047002.9,N
1505148335.5,286047001.7,N
1505148355.4,286047001.8,N
1505148375.2,286047000.2,N
1505148395.0,286047000.6,N
1505148395.9,286047000.6,N
1505148415.8,286047000.5,N
1505148435.6,286047002.3,N
1505148455.4,286047002.6,N
1505148475.3,286047002.5,N
1505148495.1,286047002.2,N
1505148496.0,286047002.2,N
1505148515.8,286046999.7,N
1505148535.6,286047001.4,N
1505148555.5,286047002.3,N
1505148575.3,286047000.3,N
1505148595.1,286047002.6,N
1505148615.9,286047001.3,N
1505148635.7,286047003.0,N
1505148655.5,286047005.0,P
1505148675.4,286047002.8,N
1505148695.2,286047003.9,N
1505148715.0,286047003.6,N
1505148716.0,286047003.6,P
1505148735.8,286047003.4,P
1505148755.6,286047005.5,P
1505148775.5,286047005.9,P
1505148795.3,286046999.1,N
1505148815.1,286046998.7,N
1505148835.9,286047000.2,N
1505148855.7,286046999.6,N
1505148875.5,286046998.9,N
1505148895.3,286046998.1,N
1505148915.2,286046994.9,N
1505148935.0,286046995.4,N
1505148935.9,286046995.4,N
1505148955.7,286046993.4,N
1505148975.6,286046993.5,N
1505148995.4,286046996.4,N
1505149015.2,286046994.5,N
1505149035.1,286046991.7,N
1505149036.0,286046991.7,N
1505149055.8,286046995.5,N
1505149075.6,286046999.1,N
1505149095.5,286046998.7,N
1505149115.3,286047000.9,N
1505149135.1,286046999.7,N
1505149155.9,286047001.5,N
1505149175.7,286047005.9,N
1505149195.5,286047001.6,N
